Regional Weather Roundup
Issued by NWS

Home | Current Version | Previous Version | Text Only | Print | Product List | Glossary On
Versions: 1 2 3 4 5 6 7 8 9 10 11 12 13 14 15 16 17 18 19 20 21 22 23 24 25 26 27
000
ASUS45 KBOI 270510
RWRID

IDAHO REGIONAL WEATHER ROUNDUP
NATIONAL WEATHER SERVICE BOISE ID
1100 PM MDT MON JUN 26 2017

NOTE: "FAIR" INDICATES FEW OR NO CLOUDS BELOW 12000 FEET
WITH NO SIGNIFICANT WEATHER AND/OR OBSTRUCTIONS TO VISIBILITY

IDZ012-014-270600-
SOUTHWEST IDAHO


CITY           SKY/WX    TMP DP  RH WIND       PRES   REMARKS
BOISE          PTCLDY    78  50  37 NW16      29.84R
CALDWELL       PTCLDY    74  51  44 W12       29.84R
MOUNTAIN HOME  CLOUDY    75  54  48 W6        29.82S
$$

IDZ016-017-270600-
SOUTHCENTRAL IDAHO


CITY           SKY/WX    TMP DP  RH WIND       PRES   REMARKS
BURLEY         CLOUDY    65  55  70 SW6       29.87R
JEROME         CLOUDY    71  48  43 NW9       29.90R
TWIN FALLS     MOCLDY    70  51  51 S7        29.93R
$$

IDZ019>023-270600-
SOUTHEAST IDAHO


CITY           SKY/WX    TMP DP  RH WIND       PRES   REMARKS
IDAHO FALLS    CLOUDY    75  46  35 NE3       29.93S
POCATELLO      CLOUDY    70  48  45 NW8       29.91R
REXBURG        CLOUDY    72  46  39 SE3       29.94S
$$

IDZ006-010-011-018-031-032-270600-
CENTRAL IDAHO MOUNTAINS


CITY           SKY/WX    TMP DP  RH WIND       PRES   REMARKS
MCCALL         PTCLDY    63  47  55 N6        30.01R
HAILEY         CLOUDY    70  48  46 NW5       30.03S
STANLEY          N/A     56  49  77 E15       30.10S
SALMON         CLOUDY   N/A N/A N/A NE23      29.90F
CHALLIS        CLOUDY    67  47  48 NE6       29.99S
$$

IDZ002-004-006-007-026-270600-
NORTHERN IDAHO


CITY           SKY/WX    TMP DP  RH WIND       PRES   REMARKS
LEWISTON       CLOUDY    74  54  49 NW9       29.80F
LOWELL           N/A     68  60  75 CALM      29.84R
COEUR D`ALENE  LGT RAIN  67  60  78 E10       29.86F
MULLAN PASS    CLOUDY    59  43  55 W12G25    30.03R
$$




USA.gov is the U.S. government's official web portal to all federal, state and local government web resources and services.